Flag for Australia Weather past 2 weeks in Traralgon, Victoria, Australia

Now
62 °F

Refreshingly cool.


Feels Like: 62 °F
Forecast: 47 / 68 °F
Wind: 6 mph from Southwest

Location: Latrobe Valley Airport

Current Time: Jan 26, 2015 at 12:22:04 PM

Latest Report: Jan 26, 2015 at 10:00 AM


Visibility: N/A

Pressure: 30.01 "Hg

Humidity: 56%

Dew point: 46 °F

Location of TraralgonLocation

Historic Weather in Traralgon — Graph

°F

Traralgon temperature yesterday

Maximum temperature yesterday: 69 °F (at 1:00 PM)
Minimum temperature yesterday: 53 °F (at 10:00 PM)
Average temperature yesterday: 63 °F

Past Weeks' High & Low Weather Summary

 TemperatureHumidityPressure
High91 °F (Jan 22, 4:00 PM)100% (Jan 13, 6:00 AM)30.09 "Hg (Jan 13, 6:00 AM)
Low43 °F (Jan 19, 7:00 AM)38% (Jan 16, 7:00 PM)29.35 "Hg (Jan 14, 3:00 AM)
Average66 °F75%29.78 "Hg
* Reported Jan 11 10:00 AM — Jan 26 10:00 AM, Traralgon, Weather by CustomWeather, © 2014

Note: Actual official high and low records may vary slightly from our data, if they occured in-between our weather recording intervals... More about our weather records

Advertising

Traralgon weather history for previous 24 hours

 ConditionsComfort  
Time TempWeatherWind HumidityBarometerVisibility
10:00 AM
Jan 26
62 °FRefreshingly cool.6 mph56%30.01 "HgN/A
9:00 AM58 °FCool.8 mph72%30.02 "HgN/A
7:00 AM45 °FQuite cool.6 mph95%29.98 "HgN/A
6:00 AM46 °FCool.3 mph92%29.96 "HgN/A
4:00 AM49 °FCool.5 mph88%29.93 "HgN/A
3:00 AM48 °FPassing clouds.2 mph88%29.92 "HgN/A
1:00 AM47 °FCool.6 mph89%29.92 "HgN/A
12:00 AM51 °FCool.3 mph78%29.92 "HgN/A
10:00 PM
Jan 25
53 °FCool.8 mph66%29.90 "HgN/A
9:00 PM56 °FPassing clouds.10 mph58%29.88 "HgN/A
7:00 PM61 °FRefreshingly cool.22 mph57%29.83 "HgN/A
6:00 PM64 °FOvercast.22 mph50%29.79 "HgN/A
4:00 PM66 °FMild.23 mph49%29.75 "HgN/A
3:00 PM69 °FPassing clouds.25 mph43%29.74 "HgN/A
1:00 PM69 °FMild.24 mph41%29.71 "HgN/A
12:00 PM65 °FOvercast.22 mph58%29.71 "HgN/A
Weather by CustomWeather, © 2014

See weather overviewHow to use our weather pages